GFSSGP_500_temp_132.txt.gz
Temp
-4 -4 -5 -5 -5 -4 -4 -4 -5 -6 -6 -6 -5 -4 -4 -5 -6 -6 -5 -5 -5 -4 -4 -4 -4 -4 -4 -4 -3 -3 -3 -3 -3 -3 -3 -3 -3 -3 -3 -3 -3 -3 -3 -3 -3 -3 -3 -4 -4
-4 -5 -5 -5 -4 -4 -4 -5 -5 -6 -7 -7 -4 -4 -4 -5 -6 -5 -4 -5 -5 -4 -4 -4 -4 -4 -4 -4 -4 -4 -4 -4 -4 -3 -3 -3 -3 -3 -3 -3 -4 -4 -4 -4 -4 -4 -4 -4 -4
-4 -4 -5 -4 -3 -3 -4 -5 -5 -5 -7 -7 -5 -4 -4 -5 -7 -3 -3 -4 -5 -4 -4 -4 -4 -4 -4 -4 -4 -4 -4 -4 -4 -4 -4 -4 -4 -4 -4 -4 -4 -4 -4 -4 -4 -5 -5 -5 -5
-4 -4 -3 -3 -3 -3 -4 -5 -5 -8 -8 -7 -5 -5 -4 -4 -4 -3 -4 -4 -4 -4 -4 -4 -4 -4 -5 -5 -5 -4 -4 -5 -5 -5 -5 -4 -4 -4 -4 -4 -4 -4 -4 -5 -5 -5 -5 -5 -5
-4 -4 -3 -3 -3 -3 -3 -4 -6 -8 -8 -8 -7 -5 -5 -4 -4 -3 -5 -4 -4 -4 -4 -4 -4 -4 -5 -5 -5 -5 -5 -5 -5 -5 -5 -5 -5 -5 -5 -5 -5 -5 -5 -5 -5 -5 -5 -6 -6
-4 -4 -4 -3 -3 -3 -4 -5 -5 -7 -9 -8 -8 -5 -6 -5 -4 -4 -5 -5 -5 -4 -4 -5 -5 -5 -5 -5 -5 -5 -5 -5 -5 -6 -5 -6 -6 -5 -5 -5 -5 -5 -5 -5 -5 -5 -5 -6 -6
-5 -5 -4 -4 -4 -4 -4 -4 -6 -7 -6 -7 -6 -7 -6 -6 -5 -5 -5 -5 -5 -5 -5 -5 -5 -5 -5 -5 -5 -5 -6 -6 -6 -6 -6 -6 -6 -6 -6 -5 -5 -5 -5 -6 -6 -6 -6 -6 -6
-6 -5 -5 -5 -5 -4 -5 -6 -8 -9 -8 -8 -7 -8 -7 -7 -7 -4 -6 -6 -6 -6 -5 -5 -5 -5 -6 -6 -6 -6 -6 -6 -7 -7 -6 -6 -6 -6 -6 -6 -6 -6 -6 -6 -6 -6 -6 -7 -7
-7 -6 -5 -5 -5 -5 -6 -6 -7 -9 -8 -6 -6 -7 -9 -7 -6 -5 -5 -5 -5 -6 -6 -5 -6 -6 -6 -6 -6 -6 -6 -6 -7 -7 -7 -7 -7 -7 -7 -7 -6 -6 -6 -6 -6 -7 -7 -7 -7
-7 -6 -5 -6 -6 -6 -6 -7 -8 -8 -6 -5 -6 -7 -6 -6 -6 -6 -6 -6 -6 -6 -6 -6 -6 -6 -6 -6 -6 -6 -7 -7 -7 -7 -7 -7 -7 -7 -7 -7 -7 -7 -7 -7 -7 -7 -7 -7 -7
-7 -6 -7 -7 -7 -7 -7 -8 -10 -7 -7 -6 -7 -7 -7 -7 -6 -7 -8 -7 -5 -4 -6 -5 -5 -5 -6 -6 -6 -7 -7 -7 -8 -8 -8 -8 -8 -8 -8 -8 -7 -7 -7 -7 -7 -7 -7 -7 -8
-7 -7 -7 -7 -7 -7 -7 -7 -7 -7 -6 -7 -6 -7 -7 -7 -6 -6 -6 -7 -6 -6 -4 -6 -5 -6 -7 -7 -7 -7 -7 -7 -7 -8 -8 -8 -8 -7 -7 -8 -8 -8 -8 -8 -8 -8 -8 -8 -8
-7 -7 -7 -7 -8 -7 -7 -7 -7 -7 -6 -6 -7 -6 -6 -6 -5 -6 -7 -6 -5 -4 -3 -8 -8 -7 -7 -8 -8 -8 -8 -8 -8 -7 -7 -7 -7 -7 -8 -7 -7 -7 -7 -8 -8 -8 -8 -9 -9
-8 -8 -7 -7 -7 -8 -7 -7 -7 -7 -7 -6 -7 -6 -6 -5 -6 -7 -7 -6 -6 -4 -4 -5 -9 -7 -8 -7 -8 -8 -8 -9 -8 -8 -8 -7 -7 -7 -7 -8 -8 -8 -8 -8 -8 -8 -9 -9 -9
-9 -8 -8 -7 -7 -7 -8 -7 -6 -7 -7 -7 -7 -7 -6 -6 -6 -7 -6 -7 -7 -5 -5 -7 -5 -7 -8 -9 -8 -7 -8 -8 -8 -7 -7 -8 -8 -8 -8 -8 -8 -9 -9 -9 -9 -8 -9 -9 -9
-10 -10 -8 -6 -7 -7 -8 -6 -7 -7 -8 -7 -7 -7 -7 -7 -6 -7 -6 -7 -7 -5 -6 -6 -7 -10 -9 -8 -9 -8 -8 -8 -8 -7 -7 -8 -8 -8 -9 -8 -8 -8 -9 -10 -10 -10 -10 -10 -10
-10 -9 -7 -8 -8 -8 -8 -6 -7 -8 -8 -8 -7 -7 -7 -7 -7 -6 -6 -7 -6 -4 -6 -10 -7 -8 -8 -8 -8 -9 -8 -8 -8 -7 -8 -8 -9 -9 -9 -9 -9 -9 -10 -10 -10 -10 -10 -10 -10
-8 -8 -8 -9 -9 -10 -10 -7 -8 -8 -8 -7 -7 -7 -8 -7 -6 -7 -7 -6 -5 -5 -5 -8 -8 -9 -9 -8 -8 -8 -8 -9 -8 -7 -8 -9 -9 -10 -10 -10 -10 -10 -10 -10 -10 -10 -10 -11 -11
-11 -12 -11 -10 -10 -11 -10 -8 -8 -8 -8 -8 -7 -7 -8 -7 -7 -7 -7 -6 -6 -6 -4 -9 -7 -8 -8 -8 -8 -8 -9 -8 -8 -8 -9 -9 -10 -9 -10 -10 -10 -10 -10 -10 -10 -11 -11 -11 -11
-11 -11 -11 -10 -11 -12 -10 -9 -9 -9 -8 -8 -8 -7 -8 -7 -7 -7 -7 -6 -6 -6 -6 -6 -6 -7 -8 -8 -7 -8 -8 -8 -8 -9 -9 -9 -9 -10 -10 -10 -10 -10 -11 -11 -11 -11 -11 -11 -11
-12 -12 -11 -11 -11 -13 -13 -11 -10 -10 -8 -8 -8 -8 -8 -7 -7 -7 -7 -7 -6 -5 -7 -8 -8 -7 -8 -8 -8 -8 -8 -8 -9 -9 -9 -9 -10 -9 -10 -10 -10 -10 -11 -11 -11 -11 -11 -11 -11
-13 -12 -12 -12 -12 -12 -13 -13 -11 -9 -8 -9 -8 -8 -8 -7 -7 -7 -7 -7 -7 -6 -5 -7 -7 -8 -8 -8 -8 -9 -9 -8 -9 -9 -10 -10 -10 -10 -11 -11 -11 -11 -11 -11 -11 -12 -12 -12 -11
-15 -14 -14 -13 -12 -13 -13 -14 -13 -12 -9 -9 -8 -8 -8 -7 -7 -7 -7 -7 -7 -7 -7 -7 -8 -8 -8 -8 -9 -8 -8 -9 -9 -9 -10 -10 -10 -11 -11 -10 -11 -11 -12 -12 -12 -12 -12 -12 -12
-18 -18 -18 -16 -15 -17 -13 -14 -13 -13 -9 -8 -8 -9 -8 -8 -8 -7 -7 -7 -7 -8 -7 -7 -8 -8 -8 -8 -8 -8 -8 -9 -9 -9 -10 -10 -10 -10 -11 -12 -12 -12 -12 -12 -12 -12 -12 -13 -13
-20 -18 -19 -18 -17 -17 -15 -14 -13 -11 -10 -8 -8 -9 -9 -9 -8 -8 -8 -7 -7 -8 -7 -7 -8 -8 -8 -8 -8 -9 -8 -9 -9 -9 -10 -10 -11 -11 -11 -12 -11 -12 -12 -12 -12 -12 -12 -13 -13
-20 -19 -19 -18 -18 -15 -16 -16 -13 -11 -9 -10 -10 -9 -9 -9 -9 -8 -8 -8 -8 -8 -7 -8 -9 -8 -8 -8 -9 -9 -9 -9 -10 -10 -11 -10 -10 -11 -10 -11 -11 -12 -12 -12 -12 -12 -12 -13 -13
-19 -19 -19 -18 -18 -17 -16 -15 -13 -12 -12 -13 -10 -9 -9 -9 -9 -9 -9 -9 -7 -8 -9 -9 -9 -9 -9 -9 -9 -9 -9 -9 -10 -11 -11 -11 -11 -11 -10 -10 -11 -12 -12 -12 -12 -13 -13 -13 -12
-19 -20 -20 -20 -18 -16 -15 -16 -14 -12 -12 -13 -12 -10 -9 -9 -9 -10 -9 -8 -7 -9 -9 -9 -9 -9 -9 -9 -9 -9 -9 -10 -11 -11 -11 -11 -11 -11 -11 -11 -12 -12 -12 -12 -13 -13 -13 -12 -12
-19 -19 -19 -19 -18 -17 -16 -15 -15 -13 -13 -13 -13 -11 -10 -10 -10 -9 -8 -8 -9 -10 -9 -9 -9 -9 -9 -10 -10 -10 -10 -11 -11 -12 -12 -11 -11 -12 -12 -12 -12 -13 -13 -13 -13 -13 -12 -12 -12
-18 -18 -20 -18 -17 -17 -16 -15 -15 -15 -14 -14 -13 -14 -14 -9 -8 -8 -8 -9 -10 -10 -10 -9 -9 -9 -9 -10 -10 -10 -11 -11 -12 -12 -12 -12 -12 -12 -12 -12 -13 -13 -13 -13 -13 -12 -12 -12 -12

GFSSGP_500_temp_138.txt.gz
Temp
-5 -5 -5 -5 -4 -3 -3 -4 -6 -6 -7 -6 -7 -8 -8 -7 -6 -5 -4 -5 -4 -3 -4 -3 -3 -4 -4 -4 -4 -4 -4 -4 -4 -3 -3 -3 -3 -3 -3 -3 -3 -3 -3 -3 -3 -3 -3 -4 -4
-5 -5 -5 -4 -3 -2 -3 -4 -5 -6 -7 -6 -6 -7 -8 -7 -7 -6 -5 -5 -4 -4 -4 -4 -3 -4 -4 -4 -4 -4 -4 -4 -4 -4 -4 -4 -4 -4 -4 -4 -4 -4 -4 -4 -4 -4 -4 -4 -4
-5 -5 -5 -4 -3 -2 -3 -5 -5 -6 -7 -7 -6 -7 -7 -7 -6 -5 -5 -4 -4 -4 -4 -4 -3 -4 -5 -4 -5 -5 -4 -4 -4 -4 -4 -4 -4 -4 -4 -4 -4 -4 -4 -5 -5 -5 -5 -5 -5
-5 -5 -5 -4 -3 -3 -3 -5 -5 -6 -7 -6 -6 -6 -6 -5 -5 -5 -5 -5 -5 -4 -4 -3 -4 -4 -5 -5 -5 -5 -5 -5 -5 -5 -5 -5 -5 -5 -5 -5 -5 -5 -5 -5 -5 -5 -5 -5 -5
-5 -5 -4 -4 -4 -3 -3 -4 -6 -6 -7 -7 -6 -5 -4 -4 -4 -4 -4 -4 -5 -4 -3 -4 -4 -5 -5 -5 -5 -5 -5 -6 -6 -6 -6 -5 -5 -5 -6 -6 -6 -6 -6 -6 -6 -6 -6 -6 -5
-5 -5 -4 -4 -4 -4 -4 -4 -5 -6 -7 -7 -6 -6 -4 -4 -3 -3 -4 -3 -4 -4 -4 -5 -5 -5 -5 -5 -6 -6 -6 -6 -6 -6 -6 -6 -6 -6 -6 -5 -5 -6 -6 -6 -6 -6 -6 -6 -6
-5 -5 -4 -4 -4 -4 -4 -4 -4 -5 -6 -7 -7 -6 -5 -4 -3 -3 -4 -4 -5 -5 -5 -5 -5 -5 -5 -5 -6 -6 -6 -7 -7 -7 -7 -6 -6 -6 -6 -6 -6 -6 -6 -6 -6 -7 -7 -7 -7
-5 -5 -4 -4 -4 -4 -5 -4 -5 -5 -6 -7 -7 -6 -6 -5 -4 -4 -4 -5 -5 -5 -6 -6 -5 -5 -6 -6 -6 -6 -6 -7 -7 -7 -7 -7 -6 -6 -6 -6 -6 -7 -7 -6 -6 -7 -7 -7 -7
-6 -5 -5 -4 -5 -5 -5 -5 -5 -5 -5 -6 -8 -6 -6 -6 -5 -3 -3 -4 -5 -6 -6 -6 -6 -6 -6 -6 -6 -6 -6 -7 -7 -7 -7 -7 -7 -7 -6 -6 -6 -6 -7 -7 -8 -8 -8 -8 -8
-6 -6 -5 -6 -5 -5 -5 -5 -6 -5 -5 -6 -7 -8 -6 -6 -5 -4 -4 -5 -6 -6 -5 -6 -6 -7 -7 -6 -6 -7 -7 -7 -7 -8 -8 -8 -8 -7 -6 -6 -6 -7 -7 -7 -8 -8 -8 -9 -9
-7 -6 -6 -6 -6 -6 -6 -6 -8 -6 -5 -6 -6 -8 -8 -7 -6 -5 -5 -5 -5 -6 -5 -5 -6 -6 -6 -7 -7 -7 -7 -7 -8 -8 -8 -8 -8 -7 -7 -7 -7 -7 -7 -8 -8 -8 -8 -9 -9
-8 -7 -7 -7 -7 -7 -7 -7 -6 -5 -5 -5 -7 -7 -7 -7 -5 -6 -5 -4 -6 -5 -5 -6 -6 -6 -7 -8 -8 -8 -8 -8 -8 -8 -9 -9 -8 -8 -8 -8 -8 -8 -8 -8 -8 -8 -8 -8 -9
-8 -7 -7 -8 -8 -7 -7 -7 -8 -7 -7 -6 -6 -6 -6 -7 -6 -6 -5 -5 -5 -6 -6 -7 -7 -7 -8 -7 -9 -9 -8 -9 -9 -9 -9 -9 -9 -8 -8 -8 -8 -8 -8 -8 -8 -8 -8 -8 -8
-9 -8 -8 -8 -7 -7 -7 -7 -8 -7 -8 -7 -7 -6 -6 -5 -6 -7 -6 -5 -5 -6 -7 -7 -8 -8 -9 -8 -9 -8 -8 -9 -10 -9 -8 -8 -8 -8 -7 -8 -8 -8 -8 -8 -8 -8 -8 -9 -9
-10 -9 -9 -8 -7 -7 -8 -7 -6 -7 -9 -9 -7 -6 -7 -7 -8 -8 -7 -6 -6 -7 -6 -6 -7 -8 -9 -8 -8 -9 -9 -9 -9 -8 -8 -7 -8 -8 -8 -8 -8 -8 -8 -8 -8 -8 -9 -9 -9
-11 -10 -9 -8 -8 -8 -9 -6 -6 -7 -8 -8 -7 -6 -6 -6 -8 -8 -7 -6 -7 -7 -6 -6 -7 -8 -8 -8 -8 -8 -8 -9 -8 -8 -8 -7 -8 -8 -8 -9 -8 -8 -8 -9 -9 -9 -8 -8 -8
-11 -9 -9 -9 -9 -9 -9 -6 -8 -8 -9 -9 -7 -6 -6 -7 -8 -7 -7 -7 -7 -6 -6 -6 -7 -8 -7 -8 -9 -9 -9 -10 -8 -7 -7 -8 -8 -8 -8 -8 -8 -8 -8 -8 -9 -9 -9 -9 -9
-11 -11 -11 -9 -10 -10 -10 -8 -8 -9 -9 -8 -8 -7 -7 -7 -8 -8 -8 -7 -7 -6 -6 -6 -6 -7 -8 -8 -8 -8 -9 -9 -7 -8 -9 -8 -8 -7 -9 -9 -8 -8 -8 -8 -8 -9 -9 -9 -10
-13 -12 -11 -11 -11 -11 -11 -9 -10 -9 -9 -9 -8 -8 -7 -7 -9 -8 -8 -8 -7 -6 -6 -6 -6 -7 -8 -8 -8 -10 -9 -10 -8 -8 -8 -7 -9 -9 -9 -8 -9 -8 -8 -8 -9 -9 -9 -10 -10
-13 -13 -12 -12 -12 -12 -11 -10 -10 -10 -10 -9 -9 -8 -8 -8 -8 -8 -8 -8 -7 -6 -7 -6 -6 -7 -8 -8 -9 -8 -9 -9 -9 -7 -8 -8 -8 -8 -9 -9 -9 -9 -9 -9 -9 -9 -9 -10 -12
-14 -14 -13 -12 -13 -13 -12 -11 -9 -9 -10 -10 -9 -8 -8 -8 -8 -8 -7 -8 -8 -7 -7 -7 -7 -7 -8 -8 -9 -8 -9 -9 -8 -8 -7 -8 -8 -9 -9 -9 -9 -9 -9 -9 -9 -9 -10 -9 -10
-15 -14 -13 -13 -14 -12 -14 -12 -11 -10 -10 -9 -9 -8 -7 -8 -8 -8 -8 -8 -8 -7 -7 -7 -7 -8 -8 -8 -9 -9 -9 -10 -8 -8 -8 -8 -8 -9 -9 -9 -9 -9 -9 -9 -9 -9 -10 -10 -10
-15 -17 -15 -14 -14 -13 -14 -15 -10 -11 -11 -10 -9 -8 -7 -8 -8 -8 -8 -8 -8 -8 -7 -7 -7 -7 -8 -8 -8 -9 -9 -10 -8 -8 -8 -8 -8 -9 -9 -9 -9 -9 -9 -9 -10 -10 -10 -10 -10
-18 -18 -17 -15 -14 -13 -12 -15 -10 -11 -11 -10 -10 -9 -8 -8 -8 -8 -8 -8 -8 -8 -7 -7 -8 -8 -8 -8 -9 -9 -10 -9 -9 -9 -8 -9 -9 -9 -9 -10 -9 -9 -10 -10 -10 -10 -9 -9 -11
-21 -19 -19 -19 -17 -14 -12 -15 -12 -11 -11 -11 -10 -9 -9 -9 -9 -8 -8 -8 -8 -8 -8 -7 -8 -8 -8 -8 -9 -9 -10 -9 -9 -9 -9 -10 -9 -10 -10 -9 -9 -10 -10 -10 -10 -10 -10 -10 -10
-20 -20 -20 -20 -18 -17 -13 -15 -12 -11 -11 -11 -11 -10 -10 -10 -9 -9 -9 -8 -8 -8 -8 -8 -8 -9 -9 -9 -9 -9 -9 -9 -9 -9 -9 -10 -10 -10 -9 -10 -10 -10 -10 -9 -10 -11 -11 -11 -11
-20 -19 -19 -20 -19 -19 -16 -16 -14 -12 -12 -12 -12 -11 -10 -11 -10 -9 -9 -9 -9 -8 -8 -8 -9 -9 -9 -9 -10 -9 -9 -9 -9 -10 -10 -10 -10 -10 -10 -10 -11 -10 -10 -10 -11 -10 -10 -10 -11
-19 -20 -20 -19 -19 -20 -18 -17 -16 -12 -12 -13 -13 -12 -11 -11 -11 -10 -9 -9 -9 -9 -8 -9 -9 -9 -9 -9 -10 -10 -9 -9 -9 -10 -10 -10 -10 -10 -10 -11 -11 -11 -11 -10 -10 -11 -10 -11 -11
-19 -19 -20 -20 -19 -19 -19 -18 -18 -12 -13 -14 -14 -12 -12 -11 -11 -10 -9 -9 -8 -9 -9 -9 -9 -10 -10 -10 -9 -9 -10 -9 -10 -10 -10 -11 -10 -11 -11 -11 -11 -11 -11 -11 -11 -11 -11 -12 -12
-19 -19 -18 -19 -19 -19 -19 -17 -18 -16 -14 -14 -14 -13 -13 -12 -12 -11 -10 -9 -9 -9 -9 -9 -10 -10 -10 -9 -9 -10 -10 -10 -11 -11 -11 -11 -11 -11 -12 -12 -12 -12 -12 -12 -12 -12 -12 -12 -12

GFSSGP_500_temp_141.txt.gz
Temp
-6 -6 -5 -5 -5 -4 -4 -4 -6 -6 -7 -7 -7 -6 -6 -5 -5 -5 -5 -5 -5 -5 -5 -4 -4 -4 -4 -4 -4 -4 -4 -4 -4 -5 -5 -5 -4 -4 -4 -4 -4 -4 -4 -4 -4 -4 -4 -4 -4
-6 -6 -6 -5 -4 -4 -4 -5 -5 -6 -7 -7 -7 -6 -5 -5 -6 -6 -6 -5 -6 -5 -5 -5 -5 -5 -4 -4 -4 -4 -4 -4 -4 -5 -5 -5 -5 -5 -5 -5 -5 -5 -5 -5 -5 -5 -5 -5 -5
-6 -6 -6 -5 -4 -3 -4 -5 -6 -6 -7 -7 -6 -7 -5 -5 -6 -6 -6 -6 -5 -5 -5 -5 -5 -5 -4 -4 -4 -4 -4 -5 -5 -6 -6 -6 -5 -5 -5 -5 -5 -5 -5 -5 -5 -5 -5 -5 -5
-6 -5 -5 -5 -4 -4 -4 -5 -6 -6 -7 -7 -6 -6 -5 -4 -5 -6 -6 -5 -5 -5 -5 -5 -5 -5 -4 -4 -4 -5 -5 -5 -5 -6 -6 -5 -5 -5 -5 -5 -5 -5 -5 -5 -5 -5 -5 -5 -5
-6 -6 -5 -4 -4 -4 -4 -5 -6 -6 -7 -7 -7 -6 -5 -5 -5 -4 -4 -4 -5 -5 -6 -5 -5 -5 -5 -5 -5 -5 -6 -6 -6 -6 -6 -6 -6 -6 -6 -5 -5 -5 -6 -5 -5 -5 -5 -6 -6
-6 -5 -5 -4 -4 -5 -4 -5 -5 -6 -6 -7 -7 -6 -6 -6 -6 -5 -5 -5 -5 -5 -5 -6 -5 -5 -5 -5 -6 -6 -6 -6 -7 -6 -6 -6 -6 -6 -6 -6 -6 -6 -6 -6 -5 -6 -6 -6 -6
-6 -5 -5 -5 -4 -5 -5 -5 -4 -5 -6 -6 -7 -6 -6 -6 -6 -5 -5 -5 -5 -5 -5 -5 -5 -5 -5 -5 -6 -6 -6 -6 -7 -7 -7 -7 -7 -6 -6 -6 -6 -6 -6 -6 -6 -6 -6 -6 -7
-6 -5 -5 -4 -4 -4 -5 -5 -5 -5 -5 -6 -7 -6 -5 -6 -5 -5 -5 -5 -5 -5 -5 -5 -5 -5 -6 -6 -6 -6 -6 -6 -7 -7 -7 -7 -7 -7 -7 -7 -7 -7 -7 -7 -7 -7 -7 -8 -8
-6 -5 -5 -5 -5 -5 -5 -5 -5 -5 -5 -5 -7 -6 -5 -6 -5 -5 -5 -4 -5 -6 -6 -6 -6 -6 -6 -6 -6 -6 -6 -7 -7 -7 -7 -7 -8 -7 -7 -7 -7 -7 -7 -8 -8 -8 -8 -8 -8
-6 -5 -4 -5 -5 -5 -5 -5 -5 -5 -5 -5 -6 -6 -5 -5 -6 -5 -5 -4 -4 -6 -6 -6 -5 -6 -6 -6 -6 -6 -7 -7 -7 -7 -8 -8 -8 -8 -8 -8 -8 -8 -8 -8 -8 -8 -8 -8 -8
-6 -5 -6 -6 -6 -6 -6 -5 -6 -5 -4 -5 -6 -6 -6 -6 -6 -6 -5 -5 -4 -5 -5 -5 -5 -5 -5 -5 -6 -7 -7 -7 -8 -8 -8 -8 -9 -9 -8 -8 -8 -8 -8 -8 -8 -8 -8 -8 -8
-8 -7 -7 -7 -7 -7 -7 -7 -6 -5 -4 -5 -6 -6 -6 -5 -5 -5 -5 -5 -4 -6 -6 -5 -5 -5 -5 -5 -5 -6 -7 -7 -8 -8 -8 -9 -9 -9 -8 -8 -8 -8 -8 -8 -8 -8 -8 -8 -8
-9 -8 -8 -8 -7 -7 -8 -7 -7 -5 -5 -5 -6 -6 -6 -6 -7 -6 -5 -4 -4 -6 -6 -6 -6 -6 -7 -7 -7 -6 -6 -7 -8 -8 -9 -9 -10 -9 -8 -8 -8 -8 -8 -8 -8 -8 -8 -8 -8
-9 -9 -9 -8 -8 -8 -7 -8 -7 -5 -6 -6 -6 -6 -7 -6 -7 -7 -6 -5 -5 -6 -6 -6 -7 -7 -7 -8 -8 -7 -7 -8 -9 -9 -9 -9 -9 -9 -9 -8 -8 -8 -8 -8 -8 -8 -8 -9 -9
-10 -9 -9 -8 -8 -8 -8 -8 -5 -7 -7 -7 -7 -7 -7 -7 -6 -6 -6 -6 -6 -6 -6 -7 -7 -7 -7 -8 -8 -8 -8 -8 -8 -8 -8 -8 -9 -9 -8 -8 -8 -8 -8 -9 -9 -8 -9 -9 -9
-10 -10 -9 -9 -9 -9 -9 -7 -7 -8 -8 -7 -8 -8 -8 -8 -7 -7 -7 -7 -7 -7 -7 -7 -7 -7 -7 -8 -8 -8 -8 -8 -8 -9 -8 -10 -9 -9 -7 -8 -8 -9 -9 -9 -8 -8 -8 -9 -9
-11 -10 -10 -10 -10 -10 -9 -7 -8 -9 -8 -8 -8 -8 -9 -8 -8 -7 -7 -7 -7 -7 -7 -6 -7 -7 -8 -7 -8 -8 -8 -9 -8 -7 -9 -10 -9 -8 -8 -8 -8 -9 -9 -8 -8 -8 -8 -9 -9
-12 -12 -11 -10 -11 -11 -10 -8 -8 -9 -9 -9 -9 -9 -9 -9 -8 -8 -7 -8 -7 -7 -7 -7 -6 -7 -7 -7 -7 -8 -8 -8 -8 -8 -9 -10 -9 -8 -8 -8 -9 -9 -8 -8 -8 -8 -8 -9 -9
-14 -13 -12 -12 -12 -11 -10 -9 -9 -9 -10 -9 -9 -9 -9 -9 -8 -8 -8 -8 -8 -7 -7 -7 -7 -7 -7 -7 -8 -8 -9 -9 -9 -8 -9 -9 -9 -8 -8 -8 -9 -8 -8 -8 -8 -8 -8 -8 -8
-15 -14 -13 -13 -12 -11 -11 -10 -9 -9 -10 -9 -9 -10 -10 -9 -8 -8 -8 -8 -8 -8 -8 -8 -7 -7 -8 -8 -8 -8 -8 -8 -8 -8 -9 -9 -10 -9 -8 -9 -8 -8 -8 -8 -8 -8 -8 -8 -9
-16 -15 -14 -14 -13 -12 -11 -11 -10 -10 -10 -9 -9 -9 -10 -9 -8 -8 -7 -7 -8 -8 -8 -8 -8 -7 -8 -8 -8 -9 -8 -7 -8 -9 -10 -10 -8 -9 -9 -9 -8 -9 -8 -8 -8 -8 -8 -8 -9
-18 -15 -15 -15 -14 -13 -13 -11 -11 -11 -10 -10 -9 -9 -9 -9 -8 -8 -8 -8 -8 -8 -8 -8 -8 -8 -8 -8 -8 -8 -8 -8 -9 -10 -9 -9 -9 -9 -9 -9 -9 -9 -9 -9 -8 -8 -8 -8 -9
-19 -18 -16 -15 -14 -14 -14 -13 -10 -11 -11 -10 -9 -9 -9 -9 -9 -8 -8 -8 -8 -8 -8 -8 -8 -8 -8 -8 -8 -9 -9 -9 -9 -10 -10 -9 -9 -9 -9 -9 -9 -9 -9 -9 -9 -9 -8 -8 -9
-21 -20 -18 -16 -15 -14 -14 -15 -10 -11 -10 -10 -10 -9 -9 -9 -9 -9 -9 -8 -8 -8 -8 -8 -8 -8 -8 -8 -8 -9 -9 -8 -9 -9 -9 -9 -9 -9 -9 -9 -9 -9 -9 -9 -9 -9 -8 -8 -9
-20 -21 -20 -19 -17 -14 -14 -15 -11 -11 -11 -10 -10 -10 -10 -10 -10 -9 -9 -9 -8 -8 -8 -8 -8 -8 -8 -8 -8 -9 -9 -9 -9 -9 -9 -10 -9 -9 -9 -9 -10 -10 -10 -9 -9 -9 -9 -9 -9
-21 -20 -20 -20 -19 -15 -16 -18 -12 -11 -12 -11 -11 -10 -10 -10 -10 -9 -9 -9 -9 -8 -8 -8 -8 -8 -8 -9 -9 -9 -9 -9 -9 -10 -10 -10 -10 -10 -9 -10 -10 -10 -10 -10 -10 -10 -10 -10 -10
-20 -19 -21 -20 -19 -19 -17 -18 -13 -12 -12 -12 -11 -11 -10 -10 -10 -10 -10 -9 -9 -9 -8 -8 -8 -9 -9 -9 -9 -9 -9 -10 -10 -10 -10 -10 -10 -10 -10 -10 -10 -10 -10 -10 -10 -11 -11 -11 -11
-19 -20 -20 -19 -19 -20 -18 -18 -14 -13 -12 -12 -12 -12 -11 -11 -10 -11 -10 -9 -9 -9 -9 -9 -8 -9 -10 -9 -9 -9 -10 -10 -10 -10 -10 -10 -10 -10 -11 -11 -11 -10 -10 -11 -11 -12 -12 -12 -12
-19 -19 -19 -19 -19 -19 -19 -19 -15 -13 -13 -13 -13 -12 -12 -11 -11 -11 -10 -10 -10 -9 -9 -9 -9 -9 -10 -9 -10 -10 -10 -11 -11 -10 -10 -11 -11 -11 -11 -11 -10 -11 -11 -12 -12 -12 -12 -12 -12
-19 -19 -19 -19 -18 -18 -19 -18 -17 -15 -14 -13 -13 -13 -12 -12 -11 -11 -11 -10 -10 -10 -9 -9 -10 -10 -10 -10 -10 -11 -11 -11 -10 -10 -10 -11 -11 -12 -12 -11 -11 -11 -11 -12 -12 -12 -12 -12 -12

GFSSGP_500_temp_144.txt.gz
Temp
-7 -6 -6 -6 -6 -4 -4 -5 -6 -6 -7 -7 -7 -6 -5 -5 -5 -5 -5 -6 -6 -5 -6 -6 -6 -5 -5 -4 -4 -4 -4 -4 -4 -4 -4 -5 -5 -5 -5 -5 -5 -5 -5 -5 -5 -5 -5 -5 -5
-7 -7 -6 -6 -5 -4 -4 -5 -5 -6 -7 -7 -7 -6 -6 -5 -5 -4 -5 -5 -6 -5 -6 -6 -6 -6 -6 -5 -4 -4 -4 -4 -4 -5 -5 -5 -5 -5 -5 -5 -5 -5 -5 -5 -5 -5 -5 -5 -6
-7 -7 -7 -6 -5 -4 -4 -6 -6 -6 -7 -7 -7 -6 -6 -5 -4 -4 -3 -4 -4 -5 -5 -5 -6 -6 -5 -5 -5 -4 -4 -4 -5 -5 -5 -5 -5 -5 -5 -5 -4 -5 -4 -4 -4 -5 -5 -5 -5
-6 -6 -6 -5 -4 -5 -4 -5 -6 -6 -7 -7 -7 -7 -6 -6 -5 -4 -4 -4 -4 -4 -5 -6 -6 -5 -5 -6 -5 -5 -5 -5 -5 -5 -5 -5 -5 -5 -5 -5 -5 -5 -5 -5 -5 -5 -5 -5 -6
-6 -6 -6 -5 -4 -4 -5 -5 -5 -6 -6 -7 -7 -7 -6 -6 -6 -5 -5 -4 -3 -4 -5 -6 -6 -5 -5 -6 -5 -5 -5 -5 -5 -5 -6 -6 -6 -6 -6 -6 -6 -6 -6 -6 -6 -6 -6 -6 -7
-6 -6 -5 -4 -4 -5 -5 -6 -6 -6 -6 -7 -6 -6 -6 -6 -6 -6 -6 -5 -5 -5 -6 -6 -6 -5 -6 -5 -5 -5 -5 -6 -6 -6 -6 -6 -6 -6 -6 -6 -6 -6 -6 -6 -6 -7 -7 -7 -7
-6 -6 -5 -5 -4 -5 -5 -6 -5 -6 -6 -6 -6 -6 -6 -6 -6 -6 -5 -5 -5 -5 -5 -5 -6 -6 -6 -6 -6 -6 -6 -6 -6 -6 -6 -6 -6 -6 -6 -7 -7 -6 -6 -7 -6 -7 -7 -7 -7
-6 -6 -5 -4 -4 -4 -5 -6 -5 -5 -5 -6 -6 -6 -6 -6 -6 -6 -5 -5 -5 -5 -6 -6 -6 -6 -6 -6 -6 -6 -6 -6 -6 -7 -7 -7 -6 -6 -7 -7 -7 -7 -7 -7 -7 -7 -7 -7 -8
-6 -5 -4 -4 -5 -5 -6 -5 -5 -5 -5 -5 -6 -6 -6 -5 -5 -5 -5 -5 -5 -5 -6 -6 -6 -6 -6 -6 -6 -6 -6 -6 -7 -7 -7 -7 -7 -7 -7 -7 -7 -7 -7 -8 -8 -7 -8 -8 -8
-6 -4 -4 -4 -5 -5 -6 -5 -5 -5 -5 -5 -5 -6 -5 -6 -5 -5 -5 -4 -5 -5 -5 -5 -6 -6 -6 -5 -6 -6 -6 -6 -6 -7 -7 -7 -8 -8 -8 -8 -8 -7 -7 -8 -8 -8 -8 -8 -7
-7 -4 -6 -6 -6 -6 -6 -5 -5 -5 -5 -5 -6 -6 -6 -5 -5 -5 -5 -5 -5 -5 -5 -6 -6 -6 -6 -6 -6 -6 -6 -6 -6 -7 -8 -8 -8 -8 -9 -9 -8 -7 -8 -8 -8 -8 -8 -8 -8
-9 -8 -7 -7 -7 -7 -7 -6 -5 -5 -5 -5 -5 -6 -5 -6 -5 -5 -5 -5 -6 -5 -5 -6 -6 -6 -6 -6 -6 -6 -6 -6 -7 -7 -8 -8 -9 -9 -9 -9 -8 -8 -8 -8 -8 -8 -8 -8 -8
-9 -8 -8 -8 -8 -8 -8 -6 -6 -5 -5 -5 -5 -6 -5 -6 -5 -5 -5 -6 -6 -5 -5 -5 -7 -7 -5 -5 -6 -6 -6 -7 -7 -8 -9 -8 -8 -9 -9 -9 -8 -7 -8 -8 -8 -8 -8 -8 -8
-9 -9 -9 -8 -9 -9 -8 -8 -7 -5 -6 -6 -6 -6 -6 -6 -6 -6 -5 -6 -6 -5 -5 -6 -7 -7 -6 -6 -6 -6 -6 -7 -7 -8 -9 -9 -9 -8 -9 -9 -8 -7 -8 -8 -8 -8 -8 -8 -8
-10 -9 -9 -9 -9 -8 -9 -8 -6 -7 -7 -7 -7 -7 -6 -6 -6 -6 -6 -6 -6 -6 -5 -6 -7 -7 -6 -6 -7 -7 -7 -7 -8 -8 -8 -9 -8 -9 -8 -9 -8 -8 -8 -8 -8 -8 -8 -8 -8
-11 -10 -10 -10 -10 -9 -9 -7 -8 -8 -8 -8 -8 -7 -6 -7 -7 -7 -7 -7 -6 -6 -6 -7 -7 -7 -7 -7 -7 -7 -7 -7 -8 -8 -8 -8 -9 -8 -8 -10 -9 -9 -8 -8 -8 -8 -8 -8 -8
-12 -11 -11 -11 -11 -10 -10 -7 -8 -9 -9 -8 -9 -9 -7 -8 -8 -7 -8 -7 -7 -7 -7 -7 -7 -7 -7 -7 -7 -7 -8 -8 -8 -7 -8 -8 -9 -9 -9 -10 -9 -9 -9 -9 -9 -9 -8 -8 -8
-14 -13 -12 -11 -12 -11 -10 -8 -9 -9 -9 -9 -9 -10 -8 -8 -7 -8 -8 -8 -8 -7 -8 -7 -7 -7 -8 -7 -7 -7 -8 -8 -7 -8 -8 -8 -8 -9 -10 -9 -9 -9 -9 -9 -9 -8 -8 -8 -8
-16 -15 -14 -13 -13 -12 -11 -10 -9 -9 -9 -9 -9 -10 -9 -8 -8 -8 -8 -8 -8 -8 -8 -8 -8 -7 -7 -8 -7 -8 -9 -8 -8 -8 -8 -8 -9 -10 -10 -9 -9 -9 -9 -9 -8 -8 -8 -8 -8
-19 -17 -15 -14 -13 -13 -12 -10 -10 -9 -9 -9 -9 -10 -10 -9 -8 -8 -8 -8 -8 -8 -8 -8 -8 -7 -7 -8 -8 -8 -8 -8 -8 -8 -8 -9 -9 -10 -9 -10 -10 -9 -10 -9 -8 -8 -8 -8 -8
-20 -18 -17 -15 -14 -13 -12 -11 -10 -10 -9 -9 -9 -10 -10 -9 -8 -8 -8 -8 -8 -8 -8 -8 -8 -8 -8 -8 -8 -8 -8 -8 -8 -9 -9 -9 -9 -10 -10 -10 -10 -9 -9 -9 -8 -8 -8 -8 -8
-21 -20 -19 -17 -15 -14 -14 -12 -11 -11 -10 -10 -10 -10 -10 -10 -9 -8 -9 -8 -8 -9 -9 -9 -9 -8 -8 -8 -8 -8 -8 -8 -9 -8 -8 -8 -9 -10 -10 -10 -10 -9 -9 -9 -8 -8 -8 -8 -8
-20 -20 -20 -19 -18 -16 -14 -13 -11 -11 -10 -10 -10 -10 -10 -10 -10 -9 -9 -9 -9 -9 -9 -9 -9 -9 -8 -8 -8 -8 -8 -9 -9 -8 -8 -9 -9 -9 -10 -10 -9 -10 -9 -9 -9 -9 -9 -8 -9
-21 -21 -20 -19 -19 -17 -15 -15 -12 -12 -10 -11 -11 -10 -10 -11 -10 -10 -9 -9 -9 -9 -9 -9 -9 -8 -8 -8 -8 -9 -9 -9 -9 -9 -9 -9 -9 -9 -10 -10 -9 -9 -9 -9 -9 -9 -9 -9 -9
-21 -21 -22 -21 -20 -17 -16 -16 -12 -12 -11 -11 -11 -11 -11 -11 -10 -10 -9 -9 -9 -9 -9 -9 -9 -9 -8 -8 -8 -9 -9 -9 -9 -9 -9 -9 -9 -10 -10 -10 -10 -10 -9 -9 -9 -9 -9 -10 -10
-21 -21 -22 -21 -19 -18 -18 -18 -13 -12 -12 -11 -12 -11 -11 -11 -10 -10 -10 -9 -9 -9 -9 -9 -9 -9 -8 -9 -9 -9 -9 -9 -9 -10 -9 -10 -10 -11 -10 -10 -10 -10 -10 -10 -10 -10 -10 -10 -10
-20 -20 -21 -21 -21 -20 -18 -18 -14 -13 -12 -11 -12 -11 -11 -11 -10 -10 -10 -10 -9 -9 -9 -10 -9 -9 -8 -9 -9 -9 -9 -9 -10 -10 -10 -10 -10 -11 -11 -10 -10 -10 -10 -10 -10 -10 -10 -10 -11
-20 -20 -20 -20 -20 -19 -18 -17 -14 -14 -13 -12 -12 -12 -12 -11 -11 -10 -10 -10 -10 -10 -10 -10 -10 -9 -9 -9 -9 -9 -9 -10 -9 -9 -10 -9 -10 -12 -11 -11 -11 -10 -10 -10 -11 -10 -10 -10 -11
-19 -20 -20 -20 -20 -19 -19 -17 -15 -14 -14 -13 -12 -13 -12 -11 -11 -11 -11 -10 -10 -10 -10 -10 -10 -9 -9 -9 -9 -9 -9 -9 -9 -10 -10 -11 -11 -11 -11 -11 -11 -11 -11 -11 -11 -11 -11 -11 -11
-19 -19 -19 -20 -19 -19 -19 -17 -17 -15 -15 -14 -13 -13 -12 -12 -12 -11 -11 -11 -10 -10 -10 -10 -10 -10 -9 -10 -10 -10 -10 -10 -10 -10 -10 -10 -11 -12 -12 -11 -11 -11 -11 -11 -11 -11 -11 -11 -11

GFSSGP_500_temp_147.txt.gz
Temp
-6 -6 -6 -6 -6 -5 -5 -6 -7 -7 -7 -6 -5 -5 -4 -5 -5 -5 -5 -5 -5 -6 -6 -6 -6 -6 -5 -5 -5 -5 -4 -4 -3 -4 -4 -4 -4 -4 -4 -4 -4 -4 -4 -4 -4 -4 -5 -5 -5
-6 -6 -6 -6 -5 -5 -5 -6 -6 -7 -7 -7 -6 -5 -5 -5 -5 -5 -4 -4 -4 -5 -5 -5 -5 -5 -5 -5 -5 -5 -5 -4 -4 -4 -4 -4 -4 -4 -4 -4 -4 -4 -4 -5 -5 -5 -5 -5 -5
-7 -6 -6 -5 -5 -4 -5 -6 -6 -6 -7 -7 -7 -6 -6 -5 -5 -5 -4 -4 -3 -4 -4 -5 -5 -5 -5 -5 -5 -5 -5 -5 -4 -4 -4 -4 -4 -4 -4 -4 -5 -5 -5 -5 -5 -5 -5 -5 -5
-7 -7 -6 -4 -4 -5 -5 -6 -6 -6 -7 -7 -7 -7 -6 -6 -6 -5 -5 -4 -4 -4 -4 -5 -5 -6 -5 -5 -5 -5 -5 -5 -5 -5 -5 -5 -5 -5 -5 -5 -5 -5 -5 -5 -5 -5 -5 -5 -5
-6 -6 -6 -4 -4 -4 -5 -6 -6 -6 -6 -7 -7 -7 -6 -6 -6 -5 -5 -5 -5 -4 -4 -5 -5 -6 -5 -5 -5 -5 -5 -5 -5 -5 -5 -5 -5 -5 -5 -6 -6 -6 -6 -6 -6 -6 -6 -6 -6
-6 -6 -5 -4 -5 -5 -5 -5 -6 -6 -6 -6 -7 -7 -6 -6 -6 -6 -5 -5 -4 -5 -5 -5 -5 -6 -6 -6 -6 -6 -6 -6 -6 -6 -6 -6 -6 -6 -6 -6 -6 -6 -6 -6 -6 -6 -6 -7 -7
-6 -6 -5 -5 -5 -5 -5 -6 -6 -6 -6 -6 -6 -6 -6 -6 -6 -6 -5 -5 -5 -4 -5 -5 -5 -6 -6 -6 -6 -6 -6 -6 -6 -6 -6 -6 -6 -6 -6 -6 -6 -6 -6 -6 -7 -6 -7 -7 -7
-6 -6 -5 -5 -5 -5 -5 -6 -6 -6 -6 -6 -6 -6 -6 -6 -6 -6 -5 -5 -5 -4 -5 -6 -6 -6 -6 -6 -5 -6 -6 -6 -6 -6 -6 -6 -6 -6 -6 -6 -6 -6 -7 -7 -7 -7 -7 -7 -7
-6 -5 -4 -4 -5 -5 -6 -6 -6 -6 -6 -6 -6 -6 -6 -6 -6 -5 -5 -5 -5 -5 -5 -6 -6 -6 -6 -6 -6 -6 -6 -6 -6 -6 -7 -7 -7 -7 -7 -7 -7 -7 -7 -7 -7 -7 -7 -7 -7
-6 -5 -4 -4 -5 -5 -6 -6 -6 -6 -6 -6 -6 -6 -6 -6 -6 -6 -5 -5 -6 -5 -6 -6 -6 -6 -6 -6 -6 -6 -6 -6 -6 -7 -7 -7 -7 -8 -8 -8 -8 -7 -8 -7 -7 -7 -7 -7 -7
-8 -5 -7 -6 -6 -7 -6 -6 -5 -5 -5 -5 -5 -5 -5 -5 -6 -6 -5 -5 -6 -5 -6 -6 -6 -6 -6 -6 -6 -6 -6 -6 -6 -6 -7 -7 -8 -8 -8 -8 -8 -8 -8 -8 -8 -8 -7 -7 -7
-8 -7 -8 -8 -8 -8 -7 -7 -5 -5 -5 -5 -5 -5 -5 -5 -5 -5 -5 -5 -5 -6 -6 -6 -6 -6 -6 -6 -6 -6 -5 -6 -6 -7 -7 -8 -8 -8 -8 -9 -9 -8 -9 -8 -8 -8 -7 -7 -7
-9 -8 -8 -8 -8 -9 -8 -8 -7 -6 -5 -5 -5 -5 -5 -5 -5 -5 -5 -5 -5 -5 -5 -5 -5 -6 -6 -6 -6 -5 -6 -6 -6 -7 -8 -8 -8 -8 -8 -8 -9 -9 -8 -8 -9 -8 -8 -8 -8
-10 -9 -9 -8 -8 -8 -8 -9 -8 -6 -6 -6 -5 -5 -5 -5 -5 -5 -5 -5 -5 -5 -6 -5 -5 -5 -6 -6 -5 -5 -6 -6 -6 -7 -8 -8 -8 -8 -8 -8 -9 -9 -9 -9 -9 -9 -8 -8 -8
-11 -10 -10 -9 -9 -9 -9 -9 -7 -8 -8 -7 -7 -6 -6 -5 -5 -5 -5 -5 -5 -6 -6 -6 -6 -6 -6 -7 -5 -5 -6 -6 -7 -7 -7 -8 -8 -8 -9 -9 -9 -9 -10 -10 -9 -8 -8 -8 -8
-12 -12 -11 -10 -10 -10 -10 -7 -8 -8 -8 -8 -8 -7 -7 -6 -6 -6 -6 -6 -6 -6 -6 -6 -6 -6 -7 -7 -6 -6 -6 -7 -7 -7 -8 -8 -8 -9 -9 -9 -8 -9 -10 -9 -9 -8 -8 -8 -8
-14 -12 -12 -11 -11 -11 -10 -8 -9 -9 -9 -9 -9 -8 -8 -7 -7 -7 -7 -7 -6 -7 -6 -6 -6 -6 -7 -8 -7 -6 -7 -7 -7 -8 -9 -8 -7 -9 -9 -9 -9 -9 -9 -9 -9 -8 -8 -9 -9
-17 -15 -14 -13 -12 -12 -11 -9 -9 -10 -9 -9 -9 -9 -8 -8 -7 -8 -7 -7 -7 -7 -7 -6 -6 -7 -8 -8 -7 -7 -7 -7 -8 -8 -8 -8 -8 -8 -8 -9 -9 -9 -9 -9 -9 -8 -9 -9 -8
-19 -18 -16 -14 -14 -13 -12 -10 -10 -10 -9 -9 -9 -9 -9 -8 -8 -8 -8 -8 -8 -8 -7 -7 -7 -7 -8 -8 -7 -7 -7 -8 -8 -8 -8 -8 -8 -8 -9 -9 -9 -9 -9 -9 -9 -9 -9 -9 -8
-20 -20 -19 -17 -15 -15 -13 -12 -10 -10 -10 -9 -9 -9 -9 -9 -8 -8 -9 -9 -8 -8 -8 -8 -8 -9 -9 -8 -7 -7 -7 -7 -7 -7 -8 -8 -8 -9 -9 -9 -9 -10 -10 -9 -9 -9 -9 -9 -8
-20 -20 -20 -20 -18 -16 -14 -12 -12 -11 -10 -10 -10 -10 -10 -9 -9 -8 -9 -9 -9 -9 -8 -9 -9 -9 -8 -8 -8 -7 -7 -7 -8 -8 -9 -9 -9 -9 -10 -10 -10 -10 -10 -9 -9 -9 -9 -9 -9
-20 -22 -22 -21 -20 -18 -17 -13 -13 -12 -11 -10 -10 -10 -10 -10 -9 -9 -9 -10 -9 -9 -9 -9 -9 -9 -9 -8 -8 -8 -8 -8 -8 -9 -9 -9 -9 -9 -9 -10 -10 -10 -10 -10 -9 -10 -9 -9 -9
-20 -21 -21 -22 -20 -19 -18 -17 -13 -13 -12 -10 -10 -10 -11 -10 -10 -9 -9 -9 -10 -9 -9 -9 -10 -9 -9 -8 -8 -8 -8 -8 -8 -9 -9 -9 -9 -9 -9 -9 -10 -10 -10 -10 -10 -9 -10 -9 -9
-20 -21 -21 -21 -22 -21 -19 -18 -13 -13 -12 -11 -10 -11 -11 -11 -10 -10 -9 -9 -10 -9 -9 -9 -9 -9 -9 -9 -8 -8 -8 -8 -8 -8 -9 -9 -9 -9 -9 -10 -10 -10 -10 -10 -10 -10 -10 -9 -9
-20 -21 -21 -21 -22 -21 -19 -19 -15 -14 -13 -12 -11 -12 -12 -11 -11 -10 -10 -9 -9 -9 -9 -9 -9 -9 -9 -9 -9 -8 -9 -8 -8 -8 -9 -9 -9 -9 -9 -9 -10 -10 -10 -10 -10 -10 -10 -10 -9
-20 -21 -21 -21 -23 -23 -22 -19 -16 -14 -13 -13 -13 -12 -12 -12 -11 -10 -10 -10 -9 -9 -9 -9 -10 -10 -10 -9 -9 -8 -9 -9 -9 -9 -9 -10 -10 -9 -10 -9 -10 -10 -9 -10 -10 -10 -10 -10 -10
-20 -20 -20 -21 -21 -21 -22 -19 -16 -15 -14 -13 -13 -13 -12 -12 -11 -11 -10 -10 -10 -9 -9 -9 -10 -10 -10 -10 -9 -9 -9 -9 -9 -9 -10 -10 -10 -10 -9 -10 -10 -11 -11 -10 -10 -11 -10 -11 -10
-19 -20 -20 -20 -20 -21 -20 -19 -17 -16 -15 -15 -14 -13 -13 -12 -12 -11 -11 -10 -10 -10 -10 -10 -10 -10 -10 -10 -9 -9 -9 -9 -10 -10 -10 -10 -10 -10 -9 -10 -11 -11 -11 -11 -11 -11 -11 -11 -11
-19 -20 -20 -20 -20 -20 -19 -19 -20 -16 -16 -15 -15 -14 -14 -13 -12 -11 -11 -11 -10 -10 -10 -10 -10 -10 -10 -9 -9 -10 -10 -10 -10 -10 -10 -11 -11 -11 -10 -11 -12 -11 -11 -11 -11 -11 -11 -11 -11
-19 -19 -20 -20 -20 -20 -19 -18 -20 -18 -16 -15 -15 -14 -13 -13 -12 -12 -11 -11 -11 -11 -10 -10 -10 -10 -10 -10 -10 -10 -10 -10 -10 -11 -11 -11 -11 -10 -10 -12 -12 -12 -12 -12 -12 -11 -12 -12 -11